Погода в Красном Острове

Россия / Нижегородская область     55°19′34″N   46°02′05″E
темп.,
°C
ветер,
м/с
пор.,
м/с
влажн.,
%
обл.,
%
осадки,
мм/ч
давл.,
гПа
погр.,
м
9 мая, вс
вс900:00+10ююв3691100 0.0 1010104
03:00+10ююв389095 0.0 1010157
06:00+11ююв61380100 0.1 1009340
09:00+15ююв71368100 0.1 1009657
12:00+16ююв51172100 0.3 1009748
15:00+18ююв61269100 0.3 1009788
18:00+17ю61371100 1.7 1009453
21:00+13юз41092100 1.8 1012394
10 мая, пн
пн1000:00+11з3693100 0.0 1014333
03:00+10ссз2597100 0.6 1016257
06:00+9ссз3697100 0.9 1018347
09:00+9с5592100 1.1 1021423
12:00+9с6892100 0.4 1023451
15:00+11с7885100 0.4 1024563
18:00+10с5889100 0.0 1025463
21:00+8ссв61194100 0.0 1026346
11 мая, вт
вт1100:00+7ссв4996100 0.0 1026304
03:00+7ссв51096100 0.0 1027265
06:00+8ссв51093100 0.0 1028315
09:00+14св687796 0.0 1028504
12:00+19всв5665100 0.0 1028805
15:00+20всв6661100 0.0 10271077
18:00+19всв3775100 0.0 1028234
21:00+15всв3108781 0.0 1028185
12 мая, ср
ср1200:00+13всв4129172 0.0 1028280
03:00+12всв37945 0.0 1027123
06:00+14в398546 0.0 1028235
09:00+20вюв575943 0.0 1028554
12:00+22вюв6847100 0.0 10281741
15:00+23юв584996 0.0 10271882
18:00+20юв486488 0.0 1027276
21:00+16в3474100 0.0 102748
13 мая, чт
чт1300:00+14вюв237776 0.0 102640
03:00+13в2279100 0.0 102623
06:00+14юв397877 0.0 1026220
09:00+18вюв511607 0.0 1025638
12:00+22юв794285 0.0 10241342
15:00+20юв71157100 0.0 1024674
18:00+17вюв41370100 0.0 1024525
21:00+14юв4117830 0.0 1023226